Location: Newark
(48.1500°N, 2.9667°W)
Time: 07:23:07
(UTC+00:00)

Courier 1B - Pass Details

Date: 29 January 2020
Orbit: 962 x 1209 km, 28.3° (Epoch: 20 February)

Event Time Altitude Azimuth Distance (km) Brightness Sun altitude
Exits shadow 05:30:34 10° 212° (SSW) 3,030 9.8 -22.3°
Reaches altitude 10° 05:30:42 10° 211° (SSW) 3,020 9.8 -22.3°
Maximum altitude 05:32:39 11° 196° (SSW) 2,955 9.9 -22.0°
Drops below altitude 10° 05:34:38 10° 180° (S) 3,061 10.1 -21.6°
Sets 05:40:12 0° 148° (SSE) 4,068 11.2 -20.7°
